Regional Weather Roundup
Issued by NWS

Home | Current Version | Previous Version | Graphics & Text | Print | Product List | Glossary On
Versions: 1 2 3 4 5 6 7 8 9 10 11 12 13 14 15 16 17 18 19 20 21 22 23 24 25 26 27 28 29 30 31 32 33 34 35 36 37 38 39 40 41 42 43 44 45 46 47 48 49 50
000
ASUS43 KLSX 021110
RWRMO

WEATHER SUMMARY FOR MISSOURI
NATIONAL WEATHER SERVICE SPRINGFIELD MO
600 AM CDT WED SEP 02 2015

NOTE: "FAIR" INDICATES FEW OR NO CLOUDS BELOW 12,000 FEET WITH NO
       SIGNIFICANT WEATHER AND/OR OBSTRUCTIONS TO VISIBILITY.
       CURRENT SKY AND/OR WEATHER CONDITIONS ARE NOT AVAILABLE FOR
       CHILLICOTHE AND FARMINGTON.

MOZ001>031-035>038-043-044-053-054-021200-
...NORTHERN AND WESTERN MISSOURI...

CITY           SKY/WX    TMP DP  RH WIND       PRES   REMARKS
KANSAS CTY INT CLOUDY    74  65  73 S10       30.00R
KANSAS C DTWN  PTCLDY    75  66  73 S7        29.99R
LEE`S SUMMIT   PTCLDY    71  65  81 S10       30.01S
ST JOSEPH      LGT RAIN  73  68  84 SE5       29.99S
CHILLICOTHE      N/A     70  67  90 CALM      30.03R
KIRKSVILLE     MOCLDY    70  67  90 S5        30.06R FOG

$$
MOZ066>068-077>081-088>096-101>105-021200-
...SOUTHWEST MISSOURI...

CITY           SKY/WX    TMP DP  RH WIND       PRES   REMARKS
SPRINGFIELD    CLEAR     70  64  81 SE12      30.09R
JOPLIN         PTCLDY    72  66  81 S12       30.06R

$$
MOZ032>034-039>042-045>050-055>058-069>072-021200-
...CENTRAL MISSOURI...

CITY           SKY/WX    TMP DP  RH WIND       PRES   REMARKS
COLUMBIA       CLEAR     70  69  97 S8        30.07R
JEFFERSON CITY CLEAR     70  68  93 SE3       30.06R
ROLLA          CLEAR     70  67  90 S8        30.09R
SEDALIA        PTCLDY    71  66  84 S9        30.06R
WHITEMAN AFB   CLEAR     70  67  92 S6        30.03R
OSAGE BEACH    CLEAR     70  66  88 SE5       30.08R

$$
MOZ051-052-059>065-021200-
...EAST CENTRAL MISSOURI...

CITY           SKY/WX    TMP DP  RH WIND       PRES   REMARKS
ST LOUIS INTL  CLEAR     76  68  76 CALM      30.09R
SPIRIT OF STL  CLEAR     70  69  97 CALM      30.07R
ST CHARLES     CLEAR     69  68  96 CALM      30.07R

$$
MOZ072>076-082>087-097>100-106>115-021200-
...SOUTH CENTRAL AND SOUTHEAST MISSOURI...

CITY           SKY/WX    TMP DP  RH WIND       PRES   REMARKS
CAPE GIRARDEAU CLEAR     66  65  96 W6        30.10R FOG
FARMINGTON     CLEAR     66  66 100 CALM      30.14R
WEST PLAINS    CLEAR     67  64  90 CALM      30.13R

$$


USA.gov is the U.S. government's official web portal to all federal, state and local government web resources and services.